Weather History for Oxford, CT

Change the Weather History Date:

Tuesday, March 20, 2012

  Actual Average Record
Temperature  
Mean Temperature 58 °F -  
Max Temperature 71 °F 42 °F 71 °F (2012)
Min Temperature 46 °F 26 °F 14 °F (2004)
Degree Days  
Heating Degree Days 6    
Growing Degree Days 8 (Base 50)    
Moisture  
Dew Point 49 °F    
Average Humidity 79    
Maximum Humidity 94    
Minimum Humidity 53    
Precipitation  
Precipitation 0.00 in - - ()
Sea Level Pressure  
Sea Level Pressure 30.31 in    
Wind  
Wind Speed 4 mph (SSW)    
Max Wind Speed 9 mph    
Max Gust Speed 17 mph    
Visibility 8 miles    
Events Fog    
Averages and records for this station are not official NWS values.
T = Trace of Precipitation, MM = Missing Value Source: NWS Daily Summary

Daily Weather History Graph

Daily Weather History Graph

Search for Another Location

Airport:

Trip Planner

Search our weather history database for the weather conditions in past years. The results will help you decide how hot, cold, wet, or windy it might be!

Date:

Astronomy

Mar. 20, 2012 Rise Set
Actual Time 6:55 AM EDT 7:05 PM EDT
Civil Twilight 6:27 AM EDT 7:32 PM EDT
Nautical Twilight 5:55 AM EDT 8:05 PM EDT
Astronomical Twilight 5:22 AM EDT 8:38 PM EDT
Moon 5:37 AM EDT (3/20) 5:29 PM EDT (3/20)
Length of Visible Light 13h 05m
Length of Day
12h 10m
Waning Crescent, 4% of the Moon is Illuminated
Mar 20
Waning Crescent
Mar 22
New
Mar 30
First Quarter
Apr 6
Full
Apr 13
Last Quarter

Hourly Weather History & Observations

Time (EDT) Temp. Dew Point Humidity Pressure Visibility Wind Dir Wind Speed Gust Speed Precip Events Conditions
12:15 AM 55.4 °F 42.8 °F 63% 30.27 in 10.0 mi SSW 3.5 mph - N/A   Clear
12:35 AM 55.4 °F 42.8 °F 63% 30.27 in 10.0 mi SSW 4.6 mph - N/A   Clear
1:15 AM 55.4 °F 44.6 °F 67% 30.26 in 10.0 mi SSW 4.6 mph - N/A   Clear
1:35 AM 55.4 °F 44.6 °F 67% 30.27 in 10.0 mi SSW 4.6 mph - N/A   Clear
1:55 AM 53.6 °F 44.6 °F 72% 30.27 in 10.0 mi SSW 4.6 mph - N/A   Clear
2:15 AM 53.6 °F 44.6 °F 72% 30.27 in 10.0 mi SSW 5.8 mph - N/A   Clear
2:35 AM 53.6 °F 46.4 °F 77% 30.27 in 10.0 mi SSW 3.5 mph - N/A   Clear
2:55 AM 53.6 °F 46.4 °F 77% 30.27 in 10.0 mi South 4.6 mph - N/A   Clear
3:35 AM 53.6 °F 48.2 °F 82% 30.27 in 10.0 mi SSW 4.6 mph - N/A   Clear
3:55 AM 51.8 °F 48.2 °F 88% 30.27 in 10.0 mi Calm Calm - N/A   Clear
4:15 AM 51.8 °F 48.2 °F 88% 30.27 in 10.0 mi South 4.6 mph - N/A   Clear
4:35 AM 51.8 °F 46.4 °F 82% 30.28 in 10.0 mi SSW 4.6 mph - N/A   Clear
5:15 AM 48.2 °F 44.6 °F 87% 30.29 in 5.0 mi Calm Calm - N/A   Clear
5:35 AM 48.2 °F 44.6 °F 87% 30.30 in 5.0 mi Calm Calm - N/A   Clear
5:45 AM 48.2 °F 46.4 °F 93% 30.31 in 4.0 mi Calm Calm - N/A   Clear
6:45 AM 46.4 °F 42.8 °F 87% 30.32 in 2.0 mi Calm Calm - N/A   Clear
7:45 AM 48.2 °F 44.6 °F 87% 30.34 in 3.0 mi ESE 3.5 mph - N/A   Clear
8:04 AM 48.2 °F 44.6 °F 87% 30.34 in 2.0 mi ESE 3.5 mph - N/A   Mostly Cloudy
8:15 AM 51.8 °F 48.2 °F 88% 30.34 in 0.5 mi Calm Calm - N/A Fog Fog
9:45 AM 55.4 °F 53.6 °F 94% 30.35 in 0.1 mi Calm Calm - N/A Fog Fog
10:10 AM 55.4 °F 53.6 °F 94% 30.36 in 0.5 mi West 3.5 mph - N/A Fog Fog
10:45 AM 57.2 °F 55.4 °F 94% 30.36 in 2.0 mi WSW 4.6 mph - N/A   Overcast
11:27 AM 62.6 °F 55.4 °F 77% 30.35 in 8.0 mi WSW 6.9 mph - N/A   Scattered Clouds
11:45 AM 64.4 °F 55.4 °F 73% 30.35 in 10.0 mi South 6.9 mph - N/A   Scattered Clouds
12:45 PM 69.8 °F 55.4 °F 60% 30.34 in 10.0 mi WSW 8.1 mph - N/A   Scattered Clouds
3:45 PM 71.6 °F 53.6 °F 53% 30.29 in 10.0 mi SW 6.9 mph 17.3 mph N/A   Scattered Clouds
4:45 PM 71.6 °F 53.6 °F 53% 30.28 in 10.0 mi SSW 6.9 mph - N/A   Scattered Clouds
5:45 PM 69.8 °F 53.6 °F 56% 30.29 in 10.0 mi SSW 9.2 mph - N/A   Clear
6:45 PM 66.2 °F 53.6 °F 64% 30.30 in 10.0 mi SSW 8.1 mph - N/A   Clear
9:15 PM 59.0 °F 53.6 °F 82% 30.32 in 10.0 mi South 5.8 mph - N/A   Clear
9:55 PM 57.2 °F 51.8 °F 82% 30.33 in 10.0 mi South 3.5 mph - N/A   Clear
10:15 PM 57.2 °F 53.6 °F 88% 30.34 in 10.0 mi SSW 3.5 mph - N/A   Clear
10:55 PM 57.2 °F 53.6 °F 88% 30.34 in 10.0 mi Calm Calm - N/A   Clear
11:15 PM 55.4 °F 51.8 °F 88% 30.35 in 10.0 mi Calm Calm - N/A   Clear
11:35 PM 57.2 °F 53.6 °F 88% 30.35 in 7.0 mi Calm Calm - N/A   Clear